Location: Bad Salzschlirf
(50.3750°N, 9.3000°E)
Time: 05:55:22
(UTC+01:00)

ISS - Pass Details

Date: 04 December 2019
Orbit: 411 x 421 km, 51.6° (Epoch: 15 December)

Event Time Altitude Azimuth Distance (km) Brightness Sun altitude
Rises 18:23:42 0° 284° (WNW) 2,360 1.2 -18.6°
Reaches altitude 10° 18:25:48 10° 284° (WNW) 1,497 0.0 -19.0°
Maximum altitude 18:29:10 88° 194° (SSW) 424 -3.9 -19.5°
Enters shadow 18:29:22 78° 117° (ESE) 432 -3.9 -19.5°
